Location: Ahausen
(50.4985°N, 8.2722°E)
Time: 19:23:15
(UTC+00:00)

Cosmos 1844 - Pass Details

Date: 18 September 2020
Orbit: 824 x 866 km, 70.9° (Epoch: 21 October)

Event Time Altitude Azimuth Distance (km) Brightness Sun altitude
Rises 19:27:11 0° 187° (S) 3,412 6.7 -18.3°
Reaches altitude 10° 19:29:43 10° 182° (S) 2,474 5.9 -18.6°
Maximum altitude 19:35:06 47° 110° (ESE) 1,117 3.9 -19.4°
Drops below altitude 10° 19:40:29 10° 39° (NE) 2,463 6.0 -20.2°
Sets 19:42:59 0° 34° (NNE) 3,396 6.8 -20.5°
